Regional Weather Roundup
Issued by NWS

Home | Current Version | Previous Version | Text Only | Print | Product List | Glossary On
Versions: 1 2 3 4 5 6 7 8 9 10 11 12 13 14 15 16 17 18 19 20 21 22 23 24 25 26 27 28 29 30 31 32 33 34 35 36 37 38 39 40 41 42 43 44 45 46 47 48 49 50
000
ASUS44 KFWD 300915
RWRTX
NORTH TEXAS HOURLY WEATHER ROUNDUP
NATIONAL WEATHER SERVICE FORT WORTH TX
400 AM CDT WED JUL 30 2014

NOTE: "FAIR" INDICATES FEW OR NO CLOUDS BELOW 12,000 FEET WITH NO
SIGNIFICANT WEATHER AND/OR OBSTRUCTIONS TO VISIBILITY.

TXZ118-119-301000-
DALLAS/FORT WORTH METROPLEX

CITY           SKY/WX    TMP DP  RH WIND       PRES   REMARKS
DFW AIRPORT    MOCLDY    76  65  68 SE6       30.02S
DALLAS LOVE    MOCLDY    77  65  66 SE6       30.03R
FTW MEACHAM    MOCLDY    75  64  68 SE7       30.02S
DAL-EXECUTIVE  MOCLDY    75  66  73 SE6       30.03S
FTW-ALLIANCE   MOCLDY    72  65  78 SE5       30.02S
FTW-NAS-JRB    MOCLDY    78  62  57 SE7       30.07S
FTW-SPINKS     PTCLDY    73  66  77 SE6       30.05R
ARLINGTON      PTCLDY    75  66  73 E5        30.03S
GRAND PRAIRIE  PTCLDY    75  64  67 CALM      30.04S
ADDISON        CLOUDY    79  63  57 SE6       30.05R
MESQUITE       MOCLDY    71  67  87 CALM      30.04R
LANCASTER      PTCLDY    69  64  85 CALM      30.04S
$$

TXZ091>094-102>105-117-120-121-131>134-301000-
NORTH CENTRAL TEXAS

CITY           SKY/WX    TMP DP  RH WIND       PRES   REMARKS
SHRMAN/DENISON CLOUDY    76  63  65 CALM      30.05F
GAINESVILLE    CLOUDY    73  62  68 E5        30.06S
BOWIE          CLOUDY    72  64  77 SE3       30.04R
BRIDGEPORT     CLOUDY    70  64  81 CALM      30.05S
DECATUR        CLOUDY    74  61  63 SE7       30.04S
DENTON         CLOUDY    73  66  78 CALM      30.03S
MCKINNEY       CLOUDY    72  67  84 CALM      30.04S
GREENVILLE     PTCLDY    73  64  73 SE6       30.05S
ROCKWALL       MOCLDY    74  66  75 SE8       30.03S
TERRELL        PTCLDY    76  68  76 SE6       30.04F
WAXAHACHIE     PTCLDY    74  65  72 SE3       30.05S
CLEBURNE       CLOUDY    73  68  83 S6        30.06R
GRANBURY       CLOUDY    77  65  68 SE6       30.05S
$$

TXZ083>090-098>101-113>116-127>130-139>142-154-155-301000-
WESTERN NORTH TEXAS

CITY           SKY/WX    TMP DP  RH WIND       PRES   REMARKS
WICHITA FALLS  RAIN      70  62  76 CALM      30.07R
WF-KICKAPOO    RAIN      72  65  79 N7        30.07R
VERNON         CLOUDY    71  67  89 E9        30.05F
ABILENE        PTCLDY    75  68  78 S12       30.03F
ABILENE-DYESS  CLOUDY    73  69  85 S13       30.02F
BRECKENRIDGE   MOCLDY    79  62  55 SE9       30.02S
GRAHAM         CLOUDY    75  61  61 SE7       30.02S
MINERAL WELLS  CLOUDY    72  65  78 SE9       30.02S
STEPHENVILLE   CLOUDY    74  62  66 SE7       30.08S
COMANCHE       CLOUDY    75  66  72 SE7       30.05S
BROWNWOOD      MOCLDY    77  70  78 SE7       30.05S
COLEMAN        MOCLDY    76  67  71 SE7       30.06R
BRADY          CLEAR     75  66  73 SE8       30.05S
$$

TXZ143>147-156>162-174-175-301000-
CENTRAL TEXAS

CITY           SKY/WX    TMP DP  RH WIND       PRES   REMARKS
WACO           PTCLDY    75  69  81 SE9       30.04S
WACO-MCGREGOR  CLEAR     73  66  78 S6        30.06S
HILLSBORO      MOCLDY    75  67  75 E9        30.04R
CORSICANA      PTCLDY    75  70  84 SE6       30.05S
MEXIA          PTCLDY    72  70  93 SE3       30.04S
HEARNE         CLEAR    N/A N/A N/A CALM      30.05R
CAMERON        CLEAR     74  72  93 S5        30.03F
TEMPLE         CLEAR     73  66  78 SE7       30.05S
KILLEEN        PTCLDY    75  72  88 SE6       30.05R
KILLEEN-SKYLRK CLEAR     75  66  73 SE6       30.04S
FORT HOOD      CLEAR     77  72  84 SE6       30.04F
GATESVILLE     PTCLDY    73  70  88 CALM      30.07R
HAMILTON       MOCLDY    75  69  79 SE10      30.06S
LAMPASAS       PTCLDY    76  73  93 CALM      30.04F
$$

TXZ095>097-106>112-122>126-135>138-148>153-164>167-301000-
EAST TEXAS

CITY           SKY/WX    TMP DP  RH WIND       PRES   REMARKS
PARIS          MOCLDY    72  63  73 E6        30.07R
SULPHUR SPRNGS PTCLDY    76  65  69 SE7       30.07R
CLARKSVILLE    MOCLDY    74  65  74 SE3       30.06S
MOUNT PLEASANT PTCLDY    71  66  85 CALM      30.07S
GILMER         PTCLDY    73  66  78 SE6       30.08S
MINEOLA        CLEAR     73  66  78 SE6       30.06S
TYLER          PTCLDY    76  66  71 SE10      30.06S
LONGVIEW       CLEAR     73  65  75 SE7       30.06S
MARSHALL       CLEAR     73  68  84 CALM      30.09S
ATHENS         PTCLDY    72  68  88 SE6       30.04S
JACKSONVILLE   PTCLDY    75  66  74 SE5       30.09S
HENDERSON      PTCLDY    73  66  77 SE6       30.07S
NACOGDOCHES    CLEAR     73  66  78 SE7       30.06F
LUFKIN         PTCLDY    76  70  82 E7        30.05S
$$

SUPPLEMENTAL OBSERVATIONS (CENTRAL)

CITY           SKY/WX    TMP DP  RH WIND       PRES   REMARKS
LAKE TEXOMA      N/A     73  66  78 E3          N/A
CADDO GRASSLND   N/A     72  66  83 NE1         N/A
PAT MAYSE LAKE   N/A     75  64  69 E6          N/A
GREENVILLE       N/A     73  66  78 S1          N/A
CEDAR HILL       N/A     75  64  69 SE3         N/A
PALESTINE        N/A     72  70  94 E1          N/A
LAKE LIMESTONE   N/A     73  72  94 S3          N/A
MCGREGOR         N/A     75  70  83 S7          N/A
TEMPLE           N/A     73  68  83 E3          N/A
$$

SUPPLEMENTAL OBSERVATIONS (WEST)

CITY           SKY/WX    TMP DP  RH WIND       PRES   REMARKS
MILLERS CREEK    N/A     75  63  64 E7          N/A
POSSUM KINGDOM   N/A     75  57  53 SE8         N/A
GRANBURY         N/A     75  64  69 SE7         N/A
COMANCHE         N/A     75  64  69 SE7         N/A
HAMBY            N/A     75  66  73 S16         N/A
IVIE RESERVOIR   N/A     79  66  65 SE8         N/A
COLORADO BEND    N/A     73  68  83 SE3         N/A
$$

SUPPLEMENTAL OBSERVATIONS (EAST)

CITY           SKY/WX    TMP DP  RH WIND       PRES   REMARKS
CLARKSVILLE      N/A     73  66  78 SE6         N/A
TEXARKANA        N/A     66  63  88 CALM        N/A
LINDEN           N/A     72  64  78 E1          N/A
CADDO LAKE       N/A     66  64  94 CALM        N/A
GILMER           N/A     73  64  73 SE6         N/A
HENDERSON        N/A     73  64  73 CALM        N/A
N SABINE NF      N/A     70  64  83 MISG        N/A
S SABINE NF      N/A     73  64  73 SE1         N/A
$$

SUPPLEMENTAL OBSERVATIONS ARE A COLLECTION OF AUTOMATED INSTRUMENTS
THAT ARE MAINTAINED BY A VARIETY OF FEDERAL AND STATE AGENCIES.
CERTAIN ELEMENTS...SUCH AS HUMIDITY VALUES AND SUSTAINED WIND
SPEEDS...MAY BE APPROXIMATED.




USA.gov is the U.S. government's official web portal to all federal, state and local government web resources and services.